Time,TemperatureF,DewpointF,PressureIn,WindDirection,WindDirectionDegrees,WindSpeedMPH,WindSpeedGustMPH,Humidity,HourlyPrecipIn,Conditions,Clouds,dailyrainin,SoftwareType,DateUTC
2013-11-05 00:00:00,32.9,31.1,30.14,SW,217,6.0,10.0,93,0.00,,CLR,0.15,VWS V14.01,2013-11-05 06:00:00,
2013-11-05 00:05:00,33.1,31.3,30.14,SW,217,6.0,9.0,93,0.00,,CLR,0.00,VWS V14.01,2013-11-05 06:05:00,
2013-11-05 00:10:00,33.1,31.3,30.14,SW,217,6.0,9.0,93,0.00,,CLR,0.00,VWS V14.01,2013-11-05 06:10:00,
2013-11-05 00:15:00,33.1,31.3,30.15,SW,217,7.0,9.0,93,0.00,,CLR,0.00,VWS V14.01,2013-11-05 06:15:00,
2013-11-05 00:20:00,32.9,31.1,30.15,SW,217,7.0,8.0,93,0.00,,CLR,0.00,VWS V14.01,2013-11-05 06:20:00,
2013-11-05 00:25:00,32.9,31.1,30.15,SW,217,6.0,8.0,93,0.00,,CLR,0.00,VWS V14.01,2013-11-05 06:25:00,
2013-11-05 00:30:00,32.8,30.7,30.16,SW,217,7.0,8.0,92,0.00,,CLR,0.00,VWS V14.01,2013-11-05 06:30:00,
2013-11-05 00:35:00,32.8,30.7,30.16,SW,217,7.0,8.0,92,0.00,,CLR,0.00,VWS V14.01,2013-11-05 06:35:00,
2013-11-05 00:40:00,32.7,30.9,30.16,SW,217,5.0,8.0,93,0.00,,CLR,0.00,VWS V14.01,2013-11-05 06:40:00,
2013-11-05 00:45:00,32.7,30.9,30.16,SW,217,7.0,9.0,93,0.00,,CLR,0.00,VWS V14.01,2013-11-05 06:45:00,
2013-11-05 00:50:00,32.5,30.7,30.16,SW,217,6.0,8.0,93,0.00,,CLR,0.00,VWS V14.01,2013-11-05 06:50:00,
2013-11-05 00:55:00,32.5,30.7,30.16,SW,217,6.0,8.0,93,0.00,,CLR,0.00,VWS V14.01,2013-11-05 06:55:00,
2013-11-05 01:00:00,32.5,30.7,30.16,SW,217,6.0,6.0,93,0.00,,CLR,0.00,VWS V14.01,2013-11-05 07:00:00,
2013-11-05 01:05:00,32.4,30.6,30.16,SW,217,6.0,9.0,93,0.00,,CLR,0.00,VWS V14.01,2013-11-05 07:05:00,
2013-11-05 01:10:00,32.1,30.0,30.16,SW,217,6.0,9.0,92,0.00,,CLR,0.00,VWS V14.01,2013-11-05 07:10:00,
2013-11-05 01:15:00,32.1,30.0,30.16,SW,217,5.0,5.0,92,0.00,,CLR,0.00,VWS V14.01,2013-11-05 07:15:00,
2013-11-05 01:20:00,32.1,30.3,30.16,SW,217,5.0,7.0,93,0.00,,CLR,0.00,VWS V14.01,2013-11-05 07:20:00,
2013-11-05 01:25:00,32.1,30.3,30.16,SW,217,5.0,9.0,93,0.00,,CLR,0.00,VWS V14.01,2013-11-05 07:25:00,
2013-11-05 01:30:00,31.9,29.8,30.17,SW,217,6.0,9.0,92,0.00,,,0.00,VWS V15.00,2013-11-05 07:30:00,
2013-11-05 01:31:00,31.9,29.8,30.17,SW,217,6.0,6.0,92,0.00,,CLR,0.00,VWS V14.01,2013-11-05 07:31:00,
2013-11-05 01:36:00,31.9,30.1,30.17,SW,217,5.0,7.0,93,0.00,,CLR,0.00,VWS V14.01,2013-11-05 07:36:00,
2013-11-05 01:41:00,31.8,30.0,30.17,SW,217,6.0,7.0,93,0.00,,CLR,0.00,VWS V14.01,2013-11-05 07:41:00,
2013-11-05 01:45:00,31.8,30.0,30.17,SW,217,5.0,7.0,93,0.00,,,0.00,VWS V15.00,2013-11-05 07:45:00,
2013-11-05 01:46:00,31.8,30.0,30.17,SW,217,6.0,6.0,93,0.00,,CLR,0.00,VWS V14.01,2013-11-05 07:46:00,
2013-11-05 01:51:00,31.6,29.8,30.17,SW,217,5.0,6.0,93,0.00,,CLR,0.00,VWS V14.01,2013-11-05 07:51:00,
2013-11-05 01:56:00,31.6,29.8,30.17,SW,217,4.0,6.0,93,0.00,,CLR,0.00,VWS V14.01,2013-11-05 07:56:00,
2013-11-05 02:00:00,31.5,29.7,30.17,SW,217,4.0,6.0,93,0.00,,,0.00,VWS V15.00,2013-11-05 08:00:00,
2013-11-05 02:01:00,31.5,29.7,30.17,SW,217,4.0,5.0,93,0.00,,CLR,0.00,VWS V14.01,2013-11-05 08:01:00,
2013-11-05 02:06:00,31.5,29.7,30.17,SW,217,5.0,6.0,93,0.00,,CLR,0.00,VWS V14.01,2013-11-05 08:06:00,
2013-11-05 02:11:00,31.5,29.7,30.17,SW,217,6.0,6.0,93,0.00,,CLR,0.00,VWS V14.01,2013-11-05 08:11:00,
2013-11-05 02:15:00,31.3,29.5,30.17,SW,217,6.0,7.0,93,0.00,,,0.00,VWS V15.00,2013-11-05 08:15:00,
2013-11-05 02:16:00,31.3,29.5,30.17,SW,217,6.0,6.0,93,0.00,,CLR,0.00,VWS V14.01,2013-11-05 08:16:00,
2013-11-05 02:21:00,31.3,29.5,30.17,SW,217,6.0,8.0,93,0.00,,CLR,0.00,VWS V14.01,2013-11-05 08:21:00,
2013-11-05 02:26:00,31.3,29.5,30.17,SW,217,7.0,8.0,93,0.00,,CLR,0.00,VWS V14.01,2013-11-05 08:26:00,
2013-11-05 02:30:00,31.2,29.4,30.17,SW,217,6.0,8.0,93,0.00,,,0.00,VWS V15.00,2013-11-05 08:30:00,
2013-11-05 02:31:00,31.2,29.4,30.17,SW,217,5.0,6.0,93,0.00,,CLR,0.00,VWS V14.01,2013-11-05 08:31:00,
2013-11-05 02:36:00,31.2,29.4,30.17,SW,217,5.0,6.0,93,0.00,,CLR,0.00,VWS V14.01,2013-11-05 08:36:00,
2013-11-05 02:41:00,30.9,29.1,30.17,SW,217,5.0,6.0,93,0.00,,CLR,0.00,VWS V14.01,2013-11-05 08:41:00,
2013-11-05 02:45:00,30.7,28.9,30.17,SW,217,5.0,6.0,93,0.00,,,0.00,VWS V15.00,2013-11-05 08:45:00,
2013-11-05 02:46:00,30.7,28.9,30.17,SW,217,5.0,6.0,93,0.00,,CLR,0.00,VWS V14.01,2013-11-05 08:46:00,
2013-11-05 02:51:00,30.9,29.4,30.17,SW,217,5.0,7.0,94,0.00,,CLR,0.00,VWS V14.01,2013-11-05 08:51:00,
2013-11-05 02:56:00,30.9,29.1,30.17,SW,217,5.0,7.0,93,0.00,,CLR,0.00,VWS V14.01,2013-11-05 08:56:00,
2013-11-05 03:00:00,31.0,29.5,30.17,SW,217,5.0,8.0,94,0.00,,,0.00,VWS V15.00,2013-11-05 09:00:00,
2013-11-05 03:01:00,30.9,29.1,30.17,SW,217,6.0,7.0,93,0.00,,CLR,0.00,VWS V14.01,2013-11-05 09:01:00,
2013-11-05 03:06:00,31.0,29.5,30.17,SW,217,6.0,7.0,94,0.00,,CLR,0.00,VWS V14.01,2013-11-05 09:06:00,
2013-11-05 03:11:00,31.0,29.5,30.17,SW,217,6.0,7.0,94,0.00,,CLR,0.00,VWS V14.01,2013-11-05 09:11:00,
2013-11-05 03:15:00,30.9,29.1,30.17,SW,217,5.0,7.0,93,0.00,,,0.00,VWS V15.00,2013-11-05 09:15:00,
2013-11-05 03:16:00,30.9,29.1,30.17,SW,217,5.0,7.0,93,0.00,,CLR,0.00,VWS V14.01,2013-11-05 09:16:00,
2013-11-05 03:21:00,30.9,29.4,30.17,SW,217,6.0,7.0,94,0.00,,CLR,0.00,VWS V14.01,2013-11-05 09:21:00,
2013-11-05 03:26:00,30.9,29.4,30.17,SW,217,5.0,7.0,94,0.00,,CLR,0.00,VWS V14.01,2013-11-05 09:26:00,
2013-11-05 03:30:00,30.9,29.1,30.17,SW,217,5.0,7.0,93,0.00,,,0.00,VWS V15.00,2013-11-05 09:30:00,
2013-11-05 03:31:00,30.7,28.9,30.17,SW,217,5.0,6.0,93,0.00,,CLR,0.00,VWS V14.01,2013-11-05 09:31:00,
2013-11-05 03:37:00,30.7,28.9,30.17,SW,217,6.0,7.0,93,0.00,,CLR,0.00,VWS V14.01,2013-11-05 09:37:00,
2013-11-05 03:42:00,30.6,28.8,30.17,SW,217,5.0,7.0,93,0.00,,CLR,0.00,VWS V14.01,2013-11-05 09:42:00,
2013-11-05 03:45:00,30.4,28.6,30.18,SW,217,5.0,7.0,93,0.00,,,0.00,VWS V15.00,2013-11-05 09:45:00,
2013-11-05 03:47:00,30.4,28.6,30.18,SW,217,7.0,7.0,93,0.00,,CLR,0.00,VWS V14.01,2013-11-05 09:47:00,
2013-11-05 03:52:00,30.3,28.5,30.18,SW,217,5.0,7.0,93,0.00,,CLR,0.00,VWS V14.01,2013-11-05 09:52:00,
2013-11-05 03:57:00,30.3,28.5,30.18,SW,217,5.0,7.0,93,0.00,,CLR,0.00,VWS V14.01,2013-11-05 09:57:00,
2013-11-05 04:00:00,30.3,28.5,30.18,SW,217,6.0,7.0,93,0.00,,,0.00,VWS V15.00,2013-11-05 10:00:00,
2013-11-05 04:02:00,30.3,28.5,30.18,SW,217,5.0,6.0,93,0.00,,CLR,0.00,VWS V14.01,2013-11-05 10:02:00,
2013-11-05 04:07:00,30.1,28.3,30.18,SW,217,5.0,6.0,93,0.00,,CLR,0.00,VWS V14.01,2013-11-05 10:07:00,
2013-11-05 04:12:00,30.0,28.2,30.18,SW,217,5.0,6.0,93,0.00,,CLR,0.00,VWS V14.01,2013-11-05 10:12:00,
2013-11-05 04:15:00,30.0,28.2,30.18,SW,217,6.0,6.0,93,0.00,,,0.00,VWS V15.00,2013-11-05 10:15:00,
2013-11-05 04:17:00,30.0,28.2,30.18,SW,217,1.0,6.0,93,0.00,,CLR,0.00,VWS V14.01,2013-11-05 10:17:00,
2013-11-05 04:22:00,30.0,28.2,30.18,SW,217,4.0,6.0,93,0.00,,CLR,0.00,VWS V14.01,2013-11-05 10:22:00,
2013-11-05 04:27:00,30.0,28.2,30.18,SW,217,3.0,7.0,93,0.00,,CLR,0.00,VWS V14.01,2013-11-05 10:27:00,
2013-11-05 04:30:00,29.8,28.0,30.19,SW,217,4.0,7.0,93,0.00,,,0.00,VWS V15.00,2013-11-05 10:30:00,
2013-11-05 04:32:00,29.8,28.0,30.19,SW,217,3.0,5.0,93,0.00,,CLR,0.00,VWS V14.01,2013-11-05 10:32:00,
2013-11-05 04:37:00,29.7,28.2,30.19,SW,217,4.0,5.0,94,0.00,,CLR,0.00,VWS V14.01,2013-11-05 10:37:00,
2013-11-05 04:42:00,29.7,28.2,30.19,SW,217,4.0,6.0,94,0.00,,CLR,0.00,VWS V14.01,2013-11-05 10:42:00,
2013-11-05 04:45:00,29.7,28.2,30.19,SW,217,4.0,6.0,94,0.00,,,0.00,VWS V15.00,2013-11-05 10:45:00,
2013-11-05 04:47:00,29.5,28.0,30.19,SW,217,5.0,6.0,94,0.00,,CLR,0.00,VWS V14.01,2013-11-05 10:47:00,
2013-11-05 04:52:00,29.5,28.0,30.19,SW,217,3.0,6.0,94,0.00,,CLR,0.00,VWS V14.01,2013-11-05 10:52:00,
2013-11-05 04:57:00,29.4,27.9,30.19,SW,217,4.0,6.0,94,0.00,,CLR,0.00,VWS V14.01,2013-11-05 10:57:00,
2013-11-05 05:00:00,29.4,27.9,30.19,SW,217,4.0,6.0,94,0.00,,,0.00,VWS V15.00,2013-11-05 11:00:00,
2013-11-05 05:02:00,29.4,27.9,30.19,SW,217,4.0,5.0,94,0.00,,CLR,0.00,VWS V14.01,2013-11-05 11:02:00,
2013-11-05 05:07:00,29.4,27.9,30.19,SW,217,4.0,5.0,94,0.00,,CLR,0.00,VWS V14.01,2013-11-05 11:07:00,
2013-11-05 05:12:00,29.4,27.9,30.19,SW,217,4.0,5.0,94,0.00,,CLR,0.00,VWS V14.01,2013-11-05 11:12:00,
2013-11-05 05:15:00,29.3,27.8,30.19,SW,217,2.0,5.0,94,0.00,,,0.00,VWS V15.00,2013-11-05 11:15:00,
2013-11-05 05:17:00,29.3,27.8,30.19,SW,217,3.0,4.0,94,0.00,,CLR,0.00,VWS V14.01,2013-11-05 11:17:00,
2013-11-05 05:22:00,29.3,27.8,30.19,SW,217,4.0,7.0,94,0.00,,CLR,0.00,VWS V14.01,2013-11-05 11:22:00,
2013-11-05 05:27:00,29.4,27.9,30.19,SW,217,5.0,7.0,94,0.00,,CLR,0.00,VWS V14.01,2013-11-05 11:27:00,
2013-11-05 05:30:00,29.3,27.8,30.19,SW,217,5.0,7.0,94,0.00,,,0.00,VWS V15.00,2013-11-05 11:30:00,
2013-11-05 05:32:00,29.3,27.8,30.19,SW,217,5.0,5.0,94,0.00,,CLR,0.00,VWS V14.01,2013-11-05 11:32:00,
2013-11-05 05:37:00,29.1,27.6,30.19,SW,217,3.0,5.0,94,0.00,,CLR,0.00,VWS V14.01,2013-11-05 11:37:00,
2013-11-05 05:42:00,29.0,27.5,30.19,SW,217,3.0,5.0,94,0.00,,CLR,0.00,VWS V14.01,2013-11-05 11:42:00,
2013-11-05 05:45:00,28.8,27.3,30.19,SW,217,5.0,5.0,94,0.00,,,0.00,VWS V15.00,2013-11-05 11:45:00,
2013-11-05 05:47:00,28.5,27.0,30.19,SW,217,5.0,5.0,94,0.00,,CLR,0.00,VWS V14.01,2013-11-05 11:47:00,
2013-11-05 05:52:00,27.6,25.8,30.19,SW,217,5.0,6.0,93,0.00,,CLR,0.00,VWS V14.01,2013-11-05 11:52:00,
2013-11-05 05:57:00,27.3,25.5,30.19,SW,217,5.0,7.0,93,0.00,,CLR,0.00,VWS V14.01,2013-11-05 11:57:00,
2013-11-05 06:00:00,27.3,25.8,30.20,SW,217,5.0,8.0,94,0.00,,,0.00,VWS V15.00,2013-11-05 12:00:00,
2013-11-05 06:02:00,27.6,26.1,30.20,SW,217,6.0,7.0,94,0.00,,CLR,0.00,VWS V14.01,2013-11-05 12:02:00,
2013-11-05 06:07:00,28.1,26.9,30.20,SW,217,7.0,7.0,95,0.00,,CLR,0.00,VWS V14.01,2013-11-05 12:07:00,
2013-11-05 06:13:00,28.5,27.2,30.20,SW,217,9.0,10.0,95,0.00,,CLR,0.00,VWS V14.01,2013-11-05 12:13:00,
2013-11-05 06:15:00,28.4,26.9,30.21,SW,215,9.0,10.0,94,0.00,,,0.00,VWS V15.00,2013-11-05 12:15:00,
2013-11-05 06:18:00,28.4,26.9,30.21,SW,215,9.0,10.0,94,0.00,,CLR,0.00,VWS V14.01,2013-11-05 12:18:00,
2013-11-05 06:23:00,28.2,26.7,30.21,SSW,213,9.0,11.0,94,0.00,,CLR,0.00,VWS V14.01,2013-11-05 12:23:00,
2013-11-05 06:28:00,28.7,27.5,30.21,SSW,208,6.0,12.0,95,0.00,,CLR,0.00,VWS V14.01,2013-11-05 12:28:00,
2013-11-05 06:30:00,28.7,27.5,30.23,SSW,208,6.0,12.0,95,0.00,,,0.00,VWS V15.00,2013-11-05 12:30:00,
2013-11-05 06:33:00,28.7,27.2,30.23,SSW,208,7.0,8.0,94,0.00,,CLR,0.00,VWS V14.01,2013-11-05 12:33:00,
2013-11-05 06:38:00,29.0,27.5,30.23,SSW,208,6.0,9.0,94,0.00,,CLR,0.00,VWS V14.01,2013-11-05 12:38:00,
2013-11-05 06:43:00,28.8,27.3,30.23,SSW,208,4.0,9.0,94,0.00,,CLR,0.00,VWS V14.01,2013-11-05 12:43:00,
2013-11-05 06:45:00,28.7,27.2,30.23,SSW,208,5.0,9.0,94,0.00,,,0.00,VWS V15.00,2013-11-05 12:45:00,
2013-11-05 06:48:00,28.7,27.2,30.23,SSW,208,6.0,7.0,94,0.00,,CLR,0.00,VWS V14.01,2013-11-05 12:48:00,
2013-11-05 06:53:00,28.7,27.2,30.23,SSW,208,6.0,8.0,94,0.00,,CLR,0.00,VWS V14.01,2013-11-05 12:53:00,
2013-11-05 06:58:00,28.8,27.3,30.23,SSW,208,6.0,8.0,94,0.00,,CLR,0.00,VWS V14.01,2013-11-05 12:58:00,
2013-11-05 07:00:00,29.0,27.5,30.22,SSW,208,7.0,9.0,94,0.00,,,0.00,VWS V15.00,2013-11-05 13:00:00,
2013-11-05 07:03:00,29.0,27.2,30.22,SSW,207,5.0,9.0,93,0.00,,CLR,0.00,VWS V14.01,2013-11-05 13:03:00,
2013-11-05 07:08:00,28.8,27.0,30.22,SSW,207,6.0,9.0,93,0.00,,CLR,0.00,VWS V14.01,2013-11-05 13:08:00,
2013-11-05 07:13:00,29.0,27.2,30.22,SSW,207,6.0,9.0,93,0.00,,CLR,0.00,VWS V14.01,2013-11-05 13:13:00,
2013-11-05 07:15:00,29.0,27.2,30.23,SSW,207,6.0,9.0,93,0.00,,,0.00,VWS V15.00,2013-11-05 13:15:00,
2013-11-05 07:18:00,29.0,27.2,30.23,SSW,207,5.0,6.0,93,0.00,,CLR,0.00,VWS V14.01,2013-11-05 13:18:00,
2013-11-05 07:23:00,29.0,27.2,30.23,SSW,207,5.0,6.0,93,0.00,,CLR,0.00,VWS V14.01,2013-11-05 13:23:00,
2013-11-05 07:28:00,28.8,27.0,30.23,SSW,207,3.0,6.0,93,0.00,,CLR,0.00,VWS V14.01,2013-11-05 13:28:00,
2013-11-05 07:30:00,28.8,27.0,30.23,SSW,207,4.0,6.0,93,0.00,,,0.00,VWS V15.00,2013-11-05 13:30:00,
2013-11-05 07:33:00,28.8,27.0,30.23,SSW,208,4.0,5.0,93,0.00,,CLR,0.00,VWS V14.01,2013-11-05 13:33:00,
2013-11-05 07:38:00,28.8,27.0,30.23,SSW,207,4.0,5.0,93,0.00,,CLR,0.00,VWS V14.01,2013-11-05 13:38:00,
2013-11-05 07:43:00,29.1,27.3,30.23,SSW,207,3.0,5.0,93,0.00,,CLR,0.00,VWS V14.01,2013-11-05 13:43:00,
2013-11-05 07:45:00,29.3,27.5,30.22,SSW,207,4.0,5.0,93,0.00,,,0.00,VWS V15.00,2013-11-05 13:45:00,
2013-11-05 07:48:00,29.5,28.0,30.22,SSW,207,5.0,6.0,94,0.00,,CLR,0.00,VWS V14.01,2013-11-05 13:48:00,
2013-11-05 07:53:00,30.0,28.2,30.22,SSW,207,4.0,6.0,93,0.00,,CLR,0.00,VWS V14.01,2013-11-05 13:53:00,
2013-11-05 07:58:00,30.1,28.3,30.22,SSW,207,3.0,6.0,93,0.00,,CLR,0.00,VWS V14.01,2013-11-05 13:58:00,
2013-11-05 08:00:00,30.3,28.5,30.22,SSW,207,3.0,6.0,93,0.00,,,0.00,VWS V15.00,2013-11-05 14:00:00,
2013-11-05 08:03:00,30.3,28.5,30.22,SSW,207,4.0,4.0,93,0.00,,CLR,0.00,VWS V14.01,2013-11-05 14:03:00,
2013-11-05 08:08:00,30.6,28.8,30.22,SSW,207,4.0,5.0,93,0.00,,CLR,0.00,VWS V14.01,2013-11-05 14:08:00,
2013-11-05 08:13:00,31.0,29.2,30.22,SSW,207,3.0,6.0,93,0.00,,CLR,0.00,VWS V14.01,2013-11-05 14:13:00,
2013-11-05 08:15:00,31.2,29.4,30.23,SSW,207,2.0,6.0,93,0.00,,,0.00,VWS V15.00,2013-11-05 14:15:00,
2013-11-05 08:18:00,31.3,29.5,30.23,SSW,207,4.0,4.0,93,0.00,,CLR,0.00,VWS V14.01,2013-11-05 14:18:00,
2013-11-05 08:23:00,31.5,29.5,30.23,SSW,207,3.0,5.0,92,0.00,,CLR,0.00,VWS V14.01,2013-11-05 14:23:00,
2013-11-05 08:28:00,31.6,29.5,30.23,SSW,207,2.0,5.0,92,0.00,,CLR,0.00,VWS V14.01,2013-11-05 14:28:00,
2013-11-05 08:30:00,31.5,29.5,30.22,SSW,207,3.0,5.0,92,0.00,,,0.00,VWS V15.00,2013-11-05 14:30:00,
2013-11-05 08:34:00,31.6,29.5,30.22,SSW,207,2.0,4.0,92,0.00,,CLR,0.00,VWS V14.01,2013-11-05 14:34:00,
2013-11-05 08:39:00,31.9,29.8,30.22,SSW,207,3.0,4.0,92,0.00,,CLR,0.00,VWS V14.01,2013-11-05 14:39:00,
2013-11-05 08:44:00,32.4,30.3,30.22,SSW,207,3.0,4.0,92,0.00,,CLR,0.00,VWS V14.01,2013-11-05 14:44:00,
2013-11-05 08:45:00,32.5,30.4,30.23,SSW,207,5.0,5.0,92,0.00,,,0.00,VWS V15.00,2013-11-05 14:45:00,
2013-11-05 08:49:00,32.8,30.5,30.23,SSW,207,2.0,5.0,91,0.00,,CLR,0.00,VWS V14.01,2013-11-05 14:49:00,
2013-11-05 08:54:00,32.9,30.3,30.23,SSW,207,3.0,5.0,90,0.00,,SCT120,0.00,VWS V14.01,2013-11-05 14:54:00,
2013-11-05 08:59:00,33.2,30.3,30.23,SSW,207,1.0,5.0,89,0.00,,SCT120,0.00,VWS V14.01,2013-11-05 14:59:00,
2013-11-05 09:00:00,33.2,30.3,30.22,SSW,207,0.0,5.0,89,0.00,,,0.00,VWS V15.00,2013-11-05 15:00:00,
2013-11-05 09:04:00,33.4,30.5,30.22,SSW,208,1.0,2.0,89,0.00,,SCT120,0.00,VWS V14.01,2013-11-05 15:04:00,
2013-11-05 09:09:00,33.5,30.6,30.22,SSW,207,3.0,3.0,89,0.00,,SCT120,0.00,VWS V14.01,2013-11-05 15:09:00,
2013-11-05 09:14:00,33.7,30.5,30.22,SSW,208,3.0,3.0,88,0.00,,SCT120,0.00,VWS V14.01,2013-11-05 15:14:00,
2013-11-05 09:15:00,33.8,30.6,30.23,SSW,207,2.0,4.0,88,0.00,,,0.00,VWS V15.00,2013-11-05 15:15:00,
2013-11-05 09:19:00,33.8,30.4,30.23,SSW,207,4.0,4.0,87,0.00,,SCT120,0.00,VWS V14.01,2013-11-05 15:19:00,
2013-11-05 09:24:00,34.4,30.9,30.23,SSW,208,5.0,5.0,87,0.00,,SCT120,0.00,VWS V14.01,2013-11-05 15:24:00,
2013-11-05 09:29:00,34.9,31.1,30.23,SSW,207,5.0,6.0,86,0.00,,SCT120,0.00,VWS V14.01,2013-11-05 15:29:00,
2013-11-05 09:30:00,35.0,31.2,30.24,SSW,207,5.0,6.0,86,0.00,,,0.00,VWS V15.00,2013-11-05 15:30:00,
2013-11-05 09:34:00,35.3,31.2,30.24,SSW,208,5.0,7.0,85,0.00,,SCT120,0.00,VWS V14.01,2013-11-05 15:34:00,
2013-11-05 09:39:00,35.8,30.9,30.24,SSW,207,4.0,7.0,82,0.00,,SCT120,0.00,VWS V14.01,2013-11-05 15:39:00,
2013-11-05 09:44:00,36.2,31.2,30.24,SSW,207,1.0,7.0,82,0.00,,SCT120,0.00,VWS V14.01,2013-11-05 15:44:00,
2013-11-05 09:45:00,36.2,31.2,30.24,SSW,207,3.0,7.0,82,0.00,,,0.00,VWS V15.00,2013-11-05 15:45:00,
2013-11-05 09:49:00,36.5,31.2,30.24,SSW,208,4.0,5.0,81,0.00,,SCT120,0.00,VWS V14.01,2013-11-05 15:49:00,
2013-11-05 09:54:00,36.8,31.8,30.24,SSW,208,5.0,5.0,82,0.00,,CLR,0.00,VWS V14.01,2013-11-05 15:54:00,
2013-11-05 09:59:00,37.2,31.6,30.24,SSW,207,3.0,5.0,80,0.00,,CLR,0.00,VWS V14.01,2013-11-05 15:59:00,
2013-11-05 10:00:00,37.2,31.6,30.24,SSW,207,5.0,5.0,80,0.00,,,0.00,VWS V15.00,2013-11-05 16:00:00,
2013-11-05 10:04:00,37.5,31.6,30.24,SSW,207,3.0,5.0,79,0.00,,CLR,0.00,VWS V14.01,2013-11-05 16:04:00,
2013-11-05 10:09:00,38.0,32.1,30.24,SSW,207,0.0,6.0,79,0.00,,CLR,0.00,VWS V14.01,2013-11-05 16:09:00,
2013-11-05 10:14:00,38.6,32.0,30.24,SSW,207,2.0,6.0,77,0.00,,CLR,0.00,VWS V14.01,2013-11-05 16:14:00,
2013-11-05 10:15:00,38.6,31.7,30.24,SSW,207,3.0,6.0,76,0.00,,,0.00,VWS V15.00,2013-11-05 16:15:00,
2013-11-05 10:19:00,38.9,31.3,30.24,SSW,207,3.0,5.0,74,0.00,,CLR,0.00,VWS V14.01,2013-11-05 16:19:00,
2013-11-05 10:24:00,39.1,31.5,30.24,SSW,208,3.0,5.0,74,0.00,,CLR,0.00,VWS V14.01,2013-11-05 16:24:00,
2013-11-05 10:29:00,39.2,31.3,30.24,SSW,208,3.0,5.0,73,0.00,,CLR,0.00,VWS V14.01,2013-11-05 16:29:00,
2013-11-05 10:30:00,39.2,31.3,30.25,SSW,208,1.0,5.0,73,0.00,,,0.00,VWS V15.00,2013-11-05 16:30:00,
2013-11-05 10:34:00,39.3,31.0,30.25,SSW,207,1.0,3.0,72,0.00,,CLR,0.00,VWS V14.01,2013-11-05 16:34:00,
2013-11-05 10:39:00,39.5,31.2,30.25,SSW,207,1.0,4.0,72,0.00,,CLR,0.00,VWS V14.01,2013-11-05 16:39:00,
2013-11-05 10:44:00,39.5,30.2,30.25,SSW,207,1.0,4.0,69,0.01,,SCT110,0.01,VWS V14.01,2013-11-05 16:44:00,
2013-11-05 10:45:00,39.5,30.5,30.25,SSW,207,3.0,4.0,70,0.01,,,0.01,VWS V15.00,2013-11-05 16:45:00,
2013-11-05 10:49:00,39.5,30.2,30.25,SSW,208,0.0,3.0,69,0.01,,SCT110,0.01,VWS V14.01,2013-11-05 16:49:00,
2013-11-05 10:54:00,39.6,31.0,30.25,SSW,208,2.0,3.0,71,0.01,,SCT110,0.01,VWS V14.01,2013-11-05 16:54:00,
2013-11-05 10:59:00,39.8,30.5,30.24,SSW,208,0.0,3.0,69,0.01,,SCT110,0.01,VWS V14.01,2013-11-05 16:59:00,
2013-11-05 11:00:00,39.9,30.6,30.24,SSW,207,1.0,3.0,69,0.01,,,0.01,VWS V15.00,2013-11-05 17:00:00,
2013-11-05 11:04:00,40.2,30.9,30.24,SSW,208,0.0,2.0,69,0.01,,SCT110,0.01,VWS V14.01,2013-11-05 17:04:00,
2013-11-05 11:09:00,40.2,30.1,30.24,SSW,208,1.0,2.0,67,0.01,,SCT110,0.01,VWS V14.01,2013-11-05 17:09:00,
2013-11-05 11:14:00,40.3,30.2,30.25,SSW,208,0.0,4.0,67,0.01,,SCT110,0.01,VWS V14.01,2013-11-05 17:14:00,
2013-11-05 11:15:00,40.3,30.6,30.25,SSW,208,0.0,4.0,68,0.01,,,0.01,VWS V15.00,2013-11-05 17:15:00,
2013-11-05 11:19:00,40.6,32.0,30.25,SSW,208,0.0,1.0,71,0.01,,SCT110,0.01,VWS V14.01,2013-11-05 17:19:00,
2013-11-05 11:24:00,40.9,32.2,30.25,SSW,208,0.0,2.0,71,0.01,,SCT110,0.01,VWS V14.01,2013-11-05 17:24:00,
2013-11-05 11:30:00,40.9,32.2,30.25,SSW,208,0.0,2.0,71,0.01,,SCT110,0.01,VWS V14.01,2013-11-05 17:30:00,
2013-11-05 11:35:00,41.1,31.7,30.25,SSW,207,0.0,0.0,69,0.01,,SCT110,0.01,VWS V14.01,2013-11-05 17:35:00,
2013-11-05 11:40:00,41.5,31.0,30.25,SSW,207,0.0,0.0,66,0.01,,SCT120,0.01,VWS V14.01,2013-11-05 17:40:00,
2013-11-05 11:45:00,41.9,31.0,30.23,SSW,207,3.0,4.0,65,0.01,,SCT120,0.01,VWS V14.01,2013-11-05 17:45:00,
2013-11-05 11:50:00,42.1,29.6,30.23,SSW,207,2.0,4.0,61,0.00,,SCT120,0.01,VWS V14.01,2013-11-05 17:50:00,
2013-11-05 11:55:00,42.2,29.3,30.23,SSW,208,0.0,4.0,60,0.00,,SCT120,0.01,VWS V14.01,2013-11-05 17:55:00,
2013-11-05 12:00:00,42.2,28.9,30.22,SSW,207,0.0,4.0,59,0.00,,SCT120,0.01,VWS V14.01,2013-11-05 18:00:00,
2013-11-05 12:05:00,42.2,28.1,30.22,SSW,207,0.0,0.0,57,0.00,,SCT120,0.01,VWS V14.01,2013-11-05 18:05:00,
2013-11-05 12:10:00,42.3,29.8,30.22,SSW,207,0.0,0.0,61,0.00,,SCT120,0.01,VWS V14.01,2013-11-05 18:10:00,
2013-11-05 12:15:00,42.5,28.8,30.23,SSW,208,0.0,0.0,58,0.00,,SCT120,0.01,VWS V14.01,2013-11-05 18:15:00,
2013-11-05 12:20:00,42.6,30.5,30.23,SSW,208,0.0,0.0,62,0.00,,SCT120,0.01,VWS V14.01,2013-11-05 18:20:00,
2013-11-05 12:25:00,42.9,31.6,30.23,SSW,208,0.0,0.0,64,0.00,,SCT120,0.01,VWS V14.01,2013-11-05 18:25:00,
2013-11-05 12:30:00,43.1,32.5,30.21,SSW,208,0.0,0.0,66,0.00,,SCT120,0.01,VWS V14.01,2013-11-05 18:30:00,
2013-11-05 12:35:00,43.1,30.2,30.21,SSW,208,0.0,0.0,60,0.00,,SCT120,0.01,VWS V14.01,2013-11-05 18:35:00,
2013-11-05 12:40:00,42.9,30.4,30.21,SSW,208,3.0,4.0,61,0.00,,BKN120,0.01,VWS V14.01,2013-11-05 18:40:00,
2013-11-05 12:45:00,42.9,30.8,30.22,SSW,208,4.0,7.0,62,0.00,,BKN120,0.01,VWS V14.01,2013-11-05 18:45:00,
2013-11-05 12:50:00,42.9,30.4,30.22,SSW,208,0.0,3.0,61,0.00,,BKN120,0.01,VWS V14.01,2013-11-05 18:50:00,
2013-11-05 12:55:00,42.8,28.6,30.22,SSW,208,0.0,3.0,57,0.00,,BKN120,0.01,VWS V14.01,2013-11-05 18:55:00,
2013-11-05 13:00:00,42.6,28.5,30.21,SSW,208,0.0,3.0,57,0.00,,BKN120,0.01,VWS V14.01,2013-11-05 19:00:00,
2013-11-05 13:05:00,42.5,28.8,30.21,SSW,208,0.0,0.0,58,0.00,,BKN120,0.01,VWS V14.01,2013-11-05 19:05:00,
2013-11-05 13:10:00,42.3,28.6,30.21,SSW,208,0.0,0.0,58,0.00,,BKN120,0.01,VWS V14.01,2013-11-05 19:10:00,
2013-11-05 13:15:00,42.3,29.8,30.20,SSW,208,0.0,0.0,61,0.00,,BKN120,0.01,VWS V14.01,2013-11-05 19:15:00,
2013-11-05 13:20:00,42.2,28.1,30.20,SSW,210,0.0,6.0,57,0.00,,BKN120,0.01,VWS V14.01,2013-11-05 19:20:00,
2013-11-05 13:25:00,42.3,28.6,30.20,SSW,211,0.0,6.0,58,0.00,,BKN120,0.01,VWS V14.01,2013-11-05 19:25:00,
2013-11-05 13:30:00,42.3,28.2,30.19,SSW,211,0.0,6.0,57,0.00,,BKN120,0.01,VWS V14.01,2013-11-05 19:30:00,
2013-11-05 13:35:00,42.5,27.9,30.19,SSW,211,0.0,0.0,56,0.00,,BKN120,0.01,VWS V14.01,2013-11-05 19:35:00,
2013-11-05 13:40:00,42.3,28.6,30.19,SW,236,0.0,6.0,58,0.00,,OVC110,0.01,VWS V14.01,2013-11-05 19:40:00,
2013-11-05 13:45:00,42.2,28.5,30.18,SW,236,0.0,6.0,58,0.00,,OVC110,0.01,VWS V14.01,2013-11-05 19:45:00,
2013-11-05 13:50:00,42.1,30.0,30.18,WNW,290,4.0,6.0,62,0.00,,OVC110,0.01,VWS V14.01,2013-11-05 19:50:00,
2013-11-05 13:55:00,42.1,29.6,30.18,WNW,291,3.0,6.0,61,0.00,,OVC110,0.01,VWS V14.01,2013-11-05 19:55:00,
2013-11-05 14:00:00,41.9,29.0,30.17,WNW,291,1.0,2.0,60,0.00,,OVC100,0.01,VWS V14.01,2013-11-05 20:00:00,
2013-11-05 14:06:00,41.9,29.9,30.17,WNW,293,4.0,6.0,62,0.00,,OVC100,0.01,VWS V14.01,2013-11-05 20:06:00,
2013-11-05 14:11:00,41.8,30.1,30.17,WNW,293,2.0,6.0,63,0.00,,OVC100,0.01,VWS V14.01,2013-11-05 20:11:00,
2013-11-05 14:15:00,41.8,30.5,30.17,WNW,293,4.0,6.0,64,0.00,,,0.01,VWS V15.00,2013-11-05 20:15:00,
2013-11-05 14:16:00,41.8,30.9,30.17,WNW,293,2.0,4.0,65,0.00,,OVC100,0.01,VWS V14.01,2013-11-05 20:16:00,
2013-11-05 14:21:00,41.6,30.3,30.17,NW,315,4.0,7.0,64,0.00,,OVC100,0.01,VWS V14.01,2013-11-05 20:21:00,
2013-11-05 14:26:00,41.3,31.5,30.17,NW,319,5.0,7.0,68,0.00,,OVC100,0.01,VWS V14.01,2013-11-05 20:26:00,
2013-11-05 14:30:00,41.2,30.3,30.16,NW,321,4.0,7.0,65,0.00,,,0.01,VWS V15.00,2013-11-05 20:30:00,
2013-11-05 14:31:00,41.2,30.3,30.16,NW,321,4.0,4.0,65,0.00,,OVC100,0.01,VWS V14.01,2013-11-05 20:31:00,
2013-11-05 14:36:00,41.1,30.2,30.16,NNW,341,5.0,9.0,65,0.00,,OVC100,0.01,VWS V14.01,2013-11-05 20:36:00,
2013-11-05 14:41:00,41.1,29.9,30.16,NNW,340,4.0,9.0,64,0.00,,OVC090,0.01,VWS V14.01,2013-11-05 20:41:00,
2013-11-05 14:45:00,40.9,30.1,30.15,NNW,342,4.0,9.0,65,0.00,,,0.01,VWS V15.00,2013-11-05 20:45:00,
2013-11-05 14:46:00,40.9,29.7,30.15,NNW,342,3.0,4.0,64,0.00,,OVC090,0.01,VWS V14.01,2013-11-05 20:46:00,
2013-11-05 14:51:00,40.8,29.2,30.15,NNW,343,4.0,9.0,63,0.00,,OVC085,0.01,VWS V14.01,2013-11-05 20:51:00,
2013-11-05 14:56:00,40.5,30.0,30.15,North,3,6.0,10.0,66,0.00,,OVC085,0.01,VWS V14.01,2013-11-05 20:56:00,
2013-11-05 15:00:00,40.2,28.6,30.14,North,2,3.0,10.0,63,0.00,,,0.01,VWS V15.00,2013-11-05 21:00:00,
2013-11-05 15:01:00,40.2,29.0,30.14,North,1,9.0,9.0,64,0.00,,OVC085,0.01,VWS V14.01,2013-11-05 21:01:00,
2013-11-05 15:06:00,39.9,28.7,30.14,North,2,6.0,10.0,64,0.00,,OVC085,0.01,VWS V14.01,2013-11-05 21:06:00,
2013-11-05 15:11:00,39.8,29.0,30.14,North,2,2.0,10.0,65,0.00,,OVC085,0.01,VWS V14.01,2013-11-05 21:11:00,
2013-11-05 15:15:00,39.6,28.4,30.14,North,2,3.0,10.0,64,0.00,,,0.01,VWS V15.00,2013-11-05 21:15:00,
2013-11-05 15:16:00,39.6,28.4,30.14,North,2,1.0,4.0,64,0.00,,OVC085,0.01,VWS V14.01,2013-11-05 21:16:00,
2013-11-05 15:21:00,39.5,29.5,30.14,North,2,4.0,5.0,67,0.00,,OVC085,0.01,VWS V14.01,2013-11-05 21:21:00,
2013-11-05 15:26:00,39.3,29.6,30.14,North,2,5.0,6.0,68,0.00,,OVC085,0.01,VWS V14.01,2013-11-05 21:26:00,
2013-11-05 15:30:00,39.2,30.6,30.14,North,357,6.0,7.0,71,0.00,,,0.01,VWS V15.00,2013-11-05 21:30:00,
2013-11-05 15:31:00,39.2,30.2,30.14,North,355,5.0,9.0,70,0.00,,OVC085,0.01,VWS V14.01,2013-11-05 21:31:00,
2013-11-05 15:36:00,38.9,30.0,30.14,North,351,5.0,10.0,70,0.00,,OVC085,0.01,VWS V14.01,2013-11-05 21:36:00,
2013-11-05 15:41:00,38.8,29.5,30.14,NNW,344,6.0,10.0,69,0.00,,OVC065,0.01,VWS V14.01,2013-11-05 21:41:00,
2013-11-05 15:45:00,38.8,28.8,30.14,NNW,343,0.0,10.0,67,0.00,,,0.01,VWS V15.00,2013-11-05 21:45:00,
2013-11-05 15:46:00,38.8,28.4,30.14,NNW,343,0.0,0.0,66,0.00,,OVC065,0.01,VWS V14.01,2013-11-05 21:46:00,
2013-11-05 15:51:00,38.6,27.9,30.14,NNW,343,0.0,0.0,65,0.00,,OVC055,0.01,VWS V14.01,2013-11-05 21:51:00,
2013-11-05 15:56:00,38.6,26.7,30.14,NNW,343,0.0,0.0,62,0.00,,OVC055,0.01,VWS V14.01,2013-11-05 21:56:00,
2013-11-05 16:00:00,38.6,26.3,30.15,NNW,343,0.0,0.0,61,0.00,,,0.01,VWS V15.00,2013-11-05 22:00:00,
2013-11-05 16:01:00,38.6,26.7,30.15,NNW,343,0.0,0.0,62,0.00,,OVC055,0.01,VWS V14.01,2013-11-05 22:01:00,
2013-11-05 16:06:00,38.5,28.5,30.15,NNW,343,0.0,0.0,67,0.00,,OVC055,0.01,VWS V14.01,2013-11-05 22:06:00,
2013-11-05 16:11:00,38.3,28.3,30.15,NNW,343,3.0,8.0,67,0.00,,OVC055,0.01,VWS V14.01,2013-11-05 22:11:00,
2013-11-05 16:15:00,38.2,28.2,30.15,NNW,345,6.0,9.0,67,0.00,,,0.01,VWS V15.00,2013-11-05 22:15:00,
2013-11-05 16:16:00,38.2,28.2,30.15,NNW,345,4.0,7.0,67,0.00,,OVC055,0.01,VWS V14.01,2013-11-05 22:16:00,
2013-11-05 16:21:00,38.0,29.1,30.15,NNW,345,9.0,10.0,70,0.00,,OVC055,0.01,VWS V14.01,2013-11-05 22:21:00,
2013-11-05 16:26:00,37.9,29.0,30.15,NNW,341,4.0,13.0,70,0.00,,OVC055,0.01,VWS V14.01,2013-11-05 22:26:00,
2013-11-05 16:30:00,37.9,27.9,30.13,NNW,343,4.0,13.0,67,0.00,,,0.01,VWS V15.00,2013-11-05 22:30:00,
2013-11-05 16:31:00,37.9,27.9,30.13,NNW,343,0.0,4.0,67,0.00,,OVC055,0.01,VWS V14.01,2013-11-05 22:31:00,
2013-11-05 16:36:00,37.8,27.5,30.13,NNW,343,0.0,4.0,66,0.00,,OVC055,0.01,VWS V14.01,2013-11-05 22:36:00,
2013-11-05 16:41:00,37.8,28.2,30.13,NNW,343,0.0,4.0,68,0.00,,OVC050,0.01,VWS V14.01,2013-11-05 22:41:00,
2013-11-05 16:45:00,37.6,28.4,30.14,NNW,343,4.0,4.0,69,0.00,,,0.01,VWS V15.00,2013-11-05 22:45:00,
2013-11-05 16:46:00,37.6,28.4,30.14,NNW,343,4.0,5.0,69,0.00,,OVC050,0.01,VWS V14.01,2013-11-05 22:46:00,
2013-11-05 16:52:00,37.3,28.8,30.14,NNW,343,2.0,7.0,71,0.00,,OVC050,0.01,VWS V14.01,2013-11-05 22:52:00,
2013-11-05 16:57:00,37.2,29.0,30.14,NNW,343,0.0,7.0,72,0.00,,OVC050,0.01,VWS V14.01,2013-11-05 22:57:00,
2013-11-05 17:00:00,37.0,28.1,30.14,NNW,344,2.0,7.0,70,0.00,,,0.01,VWS V15.00,2013-11-05 23:00:00,
2013-11-05 17:02:00,36.9,28.0,30.14,NNW,343,3.0,4.0,70,0.00,,OVC050,0.01,VWS V14.01,2013-11-05 23:02:00,
2013-11-05 17:07:00,36.8,28.6,30.14,NNW,343,2.0,4.0,72,0.00,,OVC050,0.01,VWS V14.01,2013-11-05 23:07:00,
2013-11-05 17:12:00,36.5,28.7,30.14,NNW,343,5.0,5.0,73,0.00,,OVC050,0.01,VWS V14.01,2013-11-05 23:12:00,
2013-11-05 17:15:00,36.2,29.0,30.13,NNW,344,6.0,9.0,75,0.00,,,0.01,VWS V15.00,2013-11-05 23:15:00,
2013-11-05 17:17:00,36.0,29.2,30.13,NNW,344,3.0,6.0,76,0.00,,OVC050,0.01,VWS V14.01,2013-11-05 23:17:00,
2013-11-05 17:22:00,35.6,29.7,30.13,NNW,345,6.0,7.0,79,0.00,,OVC050,0.01,VWS V14.01,2013-11-05 23:22:00,
2013-11-05 17:27:00,35.0,29.8,30.13,North,350,8.0,9.0,81,0.01,,OVC050,0.02,VWS V14.01,2013-11-05 23:27:00,
2013-11-05 17:30:00,34.6,30.0,30.13,North,357,5.0,10.0,83,0.01,,,0.02,VWS V15.00,2013-11-05 23:30:00,
2013-11-05 17:32:00,34.4,30.1,30.13,North,358,8.0,10.0,84,0.02,,OVC050,0.03,VWS V14.01,2013-11-05 23:32:00,
2013-11-05 17:37:00,34.1,30.4,30.13,North,358,11.0,12.0,86,0.03,,OVC050,0.04,VWS V14.01,2013-11-05 23:37:00,
2013-11-05 17:42:00,34.0,30.5,30.13,North,349,6.0,15.0,87,0.03,,-RA,0.04,VWS V14.01,2013-11-05 23:42:00,
2013-11-05 17:45:00,34.0,30.8,30.13,North,349,4.0,15.0,88,0.04,,,0.05,VWS V15.00,2013-11-05 23:45:00,
2013-11-05 17:47:00,34.0,30.8,30.13,NNW,343,6.0,10.0,88,0.04,,-RA,0.06,VWS V14.01,2013-11-05 23:47:00,
2013-11-05 17:52:00,34.0,31.1,30.13,NNW,344,6.0,11.0,89,0.06,,-RA,0.07,VWS V14.01,2013-11-05 23:52:00,
2013-11-05 17:57:00,33.8,30.9,30.13,NNW,347,8.0,11.0,89,0.06,,-RA,0.07,VWS V14.01,2013-11-05 23:57:00,
2013-11-05 18:00:00,33.8,31.2,30.13,North,352,6.0,11.0,90,0.07,,,0.08,VWS V15.00,2013-11-06 00:00:00,
2013-11-05 18:02:00,33.7,31.1,30.13,North,352,5.0,10.0,90,0.07,,-RA,0.08,VWS V14.01,2013-11-06 00:02:00,
2013-11-05 18:07:00,33.7,31.1,30.13,North,6,7.0,12.0,90,0.08,,-RA,0.09,VWS V14.01,2013-11-06 00:07:00,
2013-11-05 18:12:00,33.5,31.2,30.13,North,1,4.0,13.0,91,0.08,,-RA,0.09,VWS V14.01,2013-11-06 00:12:00,
2013-11-05 18:15:00,33.5,31.2,30.12,North,8,6.0,13.0,91,0.09,,,0.10,VWS V15.00,2013-11-06 00:15:00,
2013-11-05 18:17:00,33.5,31.2,30.12,North,4,8.0,11.0,91,0.09,,-RA,0.10,VWS V14.01,2013-11-06 00:17:00,
2013-11-05 18:22:00,33.4,31.3,30.12,NNE,12,7.0,11.0,92,0.10,,-RA,0.11,VWS V14.01,2013-11-06 00:22:00,
2013-11-05 18:27:00,33.4,31.3,30.12,North,7,10.0,11.0,92,0.10,,-RA,0.11,VWS V14.01,2013-11-06 00:27:00,
2013-11-05 18:30:00,33.4,31.3,30.12,North,6,4.0,11.0,92,0.11,,,0.12,VWS V15.00,2013-11-06 00:30:00,
2013-11-05 18:32:00,33.4,31.3,30.12,NNE,22,5.0,10.0,92,0.10,,-RA,0.12,VWS V14.01,2013-11-06 00:32:00,
2013-11-05 18:37:00,33.2,31.1,30.12,NNE,21,2.0,10.0,92,0.10,,-RA,0.12,VWS V14.01,2013-11-06 00:37:00,
2013-11-05 18:42:00,33.2,31.1,30.12,NNE,21,3.0,10.0,92,0.10,,-RA,0.12,VWS V14.01,2013-11-06 00:42:00,
2013-11-05 18:45:00,33.2,31.1,30.13,NNE,21,2.0,10.0,92,0.10,,,0.12,VWS V15.00,2013-11-06 00:45:00,
2013-11-05 18:47:00,33.2,31.4,30.13,NNE,21,6.0,6.0,93,0.07,,-RA,0.12,VWS V14.01,2013-11-06 00:47:00,
2013-11-05 18:52:00,32.9,31.1,30.13,NNE,21,5.0,6.0,93,0.07,,-RA,0.12,VWS V14.01,2013-11-06 00:52:00,
2013-11-05 18:57:00,32.8,31.0,30.13,NNE,21,3.0,6.0,93,0.07,,-RA,0.12,VWS V14.01,2013-11-06 00:57:00,
2013-11-05 19:00:00,32.7,30.9,30.12,NNE,21,3.0,6.0,93,0.07,,,0.12,VWS V15.00,2013-11-06 01:00:00,
2013-11-05 19:02:00,32.7,30.9,30.12,NNE,21,4.0,5.0,93,0.04,,-RA,0.12,VWS V14.01,2013-11-06 01:02:00,
2013-11-05 19:07:00,32.5,30.7,30.12,NNE,23,3.0,7.0,93,0.04,,-RA,0.12,VWS V14.01,2013-11-06 01:07:00,
2013-11-05 19:12:00,32.4,30.6,30.12,NNE,23,3.0,7.0,93,0.04,,-RA,0.12,VWS V14.01,2013-11-06 01:12:00,
2013-11-05 19:15:00,32.2,30.4,30.10,NNE,24,4.0,7.0,93,0.04,,,0.12,VWS V15.00,2013-11-06 01:15:00,
2013-11-05 19:17:00,32.2,30.4,30.10,NNE,24,4.0,6.0,93,0.02,,-RA,0.12,VWS V14.01,2013-11-06 01:17:00,
2013-11-05 19:22:00,32.2,30.4,30.10,NNE,24,5.0,6.0,93,0.02,,-RA,0.12,VWS V14.01,2013-11-06 01:22:00,
2013-11-05 19:27:00,32.1,30.6,30.10,NNE,24,2.0,6.0,94,0.03,,-RA,0.13,VWS V14.01,2013-11-06 01:27:00,
2013-11-05 19:30:00,32.1,30.6,30.11,NNE,24,1.0,6.0,94,0.05,,,0.15,VWS V15.00,2013-11-06 01:30:00,
2013-11-05 19:33:00,32.1,30.6,30.11,NNE,24,3.0,5.0,94,0.03,,-RA,0.15,VWS V14.01,2013-11-06 01:33:00,
2013-11-05 19:38:00,32.1,30.6,30.11,NNE,24,1.0,6.0,94,0.06,,-RA,0.18,VWS V14.01,2013-11-06 01:38:00,
2013-11-05 19:43:00,32.1,30.6,30.11,NNE,24,4.0,6.0,94,0.06,,,0.18,VWS V14.01,2013-11-06 01:43:00,
2013-11-05 19:45:00,32.1,30.6,30.12,NNE,24,0.0,6.0,94,0.07,,,0.19,VWS V15.00,2013-11-06 01:45:00,
2013-11-05 19:48:00,32.1,30.6,30.12,NNE,24,3.0,4.0,94,0.08,,,0.20,VWS V14.01,2013-11-06 01:48:00,
2013-11-05 19:53:00,32.1,30.6,30.12,NNE,24,6.0,6.0,94,0.08,,OVC015,0.20,VWS V14.01,2013-11-06 01:53:00,
2013-11-05 19:58:00,32.1,30.6,30.12,NNE,24,4.0,6.0,94,0.10,,OVC015,0.22,VWS V14.01,2013-11-06 01:58:00,
2013-11-05 20:00:00,32.1,30.6,30.10,NNE,24,4.0,6.0,94,0.10,,,0.22,VWS V15.00,2013-11-06 02:00:00,
2013-11-05 20:03:00,32.1,30.6,30.10,NNE,24,5.0,7.0,94,0.10,,OVC015,0.22,VWS V14.01,2013-11-06 02:03:00,
2013-11-05 20:08:00,32.1,30.8,30.10,NNE,23,2.0,7.0,95,0.11,,OVC015,0.23,VWS V14.01,2013-11-06 02:08:00,
2013-11-05 20:13:00,32.1,30.8,30.10,NNE,23,5.0,7.0,95,0.12,,OVC015,0.24,VWS V14.01,2013-11-06 02:13:00,
2013-11-05 20:15:00,32.1,30.8,30.09,NNE,23,2.0,7.0,95,0.12,,,0.24,VWS V15.00,2013-11-06 02:15:00,
2013-11-05 20:18:00,32.1,30.8,30.09,NNE,23,2.0,7.0,95,0.13,,OVC015,0.25,VWS V14.01,2013-11-06 02:18:00,
2013-11-05 20:23:00,32.1,30.8,30.09,NNE,23,4.0,7.0,95,0.13,,OVC015,0.25,VWS V14.01,2013-11-06 02:23:00,
2013-11-05 20:28:00,32.1,30.8,30.09,NNE,23,4.0,7.0,95,0.14,,OVC015,0.26,VWS V14.01,2013-11-06 02:28:00,
2013-11-05 20:30:00,32.1,30.8,30.08,NNE,23,6.0,7.0,95,0.14,,,0.26,VWS V15.00,2013-11-06 02:30:00,
2013-11-05 20:33:00,32.1,30.8,30.08,NNE,23,3.0,6.0,95,0.12,,OVC015,0.28,VWS V14.01,2013-11-06 02:33:00,
2013-11-05 20:38:00,32.1,30.8,30.08,NNE,23,2.0,6.0,95,0.12,,OVC015,0.28,VWS V14.01,2013-11-06 02:38:00,
2013-11-05 20:43:00,32.1,30.8,30.08,NNE,23,4.0,6.0,95,0.12,,OVC018,0.28,VWS V14.01,2013-11-06 02:43:00,
2013-11-05 20:45:00,31.9,30.6,30.08,NNE,23,3.0,6.0,95,0.12,,,0.28,VWS V15.00,2013-11-06 02:45:00,
2013-11-05 20:48:00,31.9,30.6,30.08,NNE,23,4.0,4.0,95,0.10,,OVC018,0.29,VWS V14.01,2013-11-06 02:48:00,
2013-11-05 20:53:00,31.9,30.6,30.08,NNE,23,4.0,5.0,95,0.10,,OVC025,0.29,VWS V14.01,2013-11-06 02:53:00,
2013-11-05 20:58:00,31.9,30.6,30.08,NNE,23,3.0,5.0,95,0.10,,OVC025,0.29,VWS V14.01,2013-11-06 02:58:00,
2013-11-05 21:00:00,31.9,30.6,30.07,NNE,23,4.0,5.0,95,0.11,,,0.30,VWS V15.00,2013-11-06 03:00:00,
2013-11-05 21:03:00,31.9,30.6,30.07,NNE,23,3.0,5.0,95,0.08,,OVC025,0.30,VWS V14.01,2013-11-06 03:03:00,
2013-11-05 21:08:00,31.9,30.6,30.07,NNE,23,4.0,5.0,95,0.08,,OVC025,0.30,VWS V14.01,2013-11-06 03:08:00,
2013-11-05 21:13:00,31.9,30.6,30.07,NNE,23,4.0,5.0,95,0.09,,OVC025,0.31,VWS V14.01,2013-11-06 03:13:00,
2013-11-05 21:15:00,31.9,30.9,30.07,NNE,23,1.0,5.0,96,0.09,,,0.31,VWS V15.00,2013-11-06 03:15:00,
2013-11-05 21:18:00,31.9,30.6,30.07,NNE,23,3.0,5.0,95,0.07,,OVC025,0.31,VWS V14.01,2013-11-06 03:18:00,
2013-11-05 21:23:00,31.9,30.9,30.07,NNE,23,4.0,5.0,96,0.07,,OVC025,0.31,VWS V14.01,2013-11-06 03:23:00,
2013-11-05 21:28:00,31.9,30.9,30.07,NNE,23,3.0,5.0,96,0.08,,OVC025,0.32,VWS V14.01,2013-11-06 03:28:00,
2013-11-05 21:30:00,31.9,30.9,30.07,NNE,23,4.0,5.0,96,0.08,,,0.32,VWS V15.00,2013-11-06 03:30:00,
2013-11-05 21:33:00,31.9,30.9,30.07,NNE,23,5.0,6.0,96,0.05,,OVC025,0.32,VWS V14.01,2013-11-06 03:33:00,
2013-11-05 21:38:00,31.9,30.9,30.07,NNE,23,0.0,6.0,96,0.05,,OVC025,0.32,VWS V14.01,2013-11-06 03:38:00,
2013-11-05 21:43:00,31.9,30.9,30.07,NNE,23,0.0,6.0,96,0.05,,,0.32,VWS V14.01,2013-11-06 03:43:00,
2013-11-05 21:45:00,31.9,30.9,30.06,NNE,23,0.0,6.0,96,0.05,,,0.32,VWS V15.00,2013-11-06 03:45:00,
2013-11-05 21:48:00,31.9,30.9,30.06,NNE,23,0.0,0.0,96,0.04,,,0.32,VWS V14.01,2013-11-06 03:48:00,
2013-11-05 21:53:00,31.9,30.9,30.06,NNE,23,0.0,0.0,96,0.06,,,0.33,VWS V14.01,2013-11-06 03:53:00,
2013-11-05 21:58:00,31.9,30.9,30.06,NNE,23,0.0,0.0,96,0.06,,,0.33,VWS V14.01,2013-11-06 03:58:00,
2013-11-05 22:00:00,31.9,30.9,30.06,NNE,23,0.0,0.0,96,0.05,,,0.33,VWS V15.00,2013-11-06 04:00:00,
2013-11-05 22:03:00,31.9,30.9,30.06,NNE,23,0.0,0.0,96,0.03,,OVC022,0.33,VWS V14.01,2013-11-06 04:03:00,
2013-11-05 22:09:00,31.9,30.9,30.06,NNE,23,0.0,0.0,96,0.03,,OVC022,0.33,VWS V14.01,2013-11-06 04:09:00,
2013-11-05 22:14:00,31.9,30.9,30.06,NNE,23,0.0,0.0,96,0.03,,OVC022,0.33,VWS V14.01,2013-11-06 04:14:00,
2013-11-05 22:15:00,31.9,30.9,30.07,NNE,23,0.0,0.0,96,0.03,,,0.33,VWS V15.00,2013-11-06 04:15:00,
2013-11-05 22:19:00,31.9,30.9,30.07,NNE,23,0.0,0.0,96,0.02,,OVC022,0.33,VWS V14.01,2013-11-06 04:19:00,
2013-11-05 22:24:00,31.9,30.9,30.07,NNE,23,0.0,0.0,96,0.02,,OVC022,0.33,VWS V14.01,2013-11-06 04:24:00,
2013-11-05 22:29:00,31.9,30.9,30.07,NNE,23,0.0,0.0,96,0.03,,OVC022,0.34,VWS V14.01,2013-11-06 04:29:00,
2013-11-05 22:30:00,31.9,30.9,30.06,NNE,23,0.0,0.0,96,0.03,,,0.34,VWS V15.00,2013-11-06 04:30:00,
2013-11-05 22:34:00,31.9,30.9,30.06,NNE,23,0.0,0.0,96,0.02,,OVC022,0.34,VWS V14.01,2013-11-06 04:34:00,
2013-11-05 22:39:00,31.9,30.9,30.06,NNE,23,0.0,0.0,96,0.02,,OVC022,0.34,VWS V14.01,2013-11-06 04:39:00,
2013-11-05 22:44:00,31.9,30.9,30.06,NNE,23,0.0,0.0,96,0.03,,OVC020,0.35,VWS V14.01,2013-11-06 04:44:00,
2013-11-05 22:45:00,31.9,30.9,30.06,NNE,23,0.0,0.0,96,0.03,,,0.35,VWS V15.00,2013-11-06 04:45:00,
2013-11-05 22:49:00,31.9,30.9,30.06,NNE,23,0.0,0.0,96,0.03,,OVC020,0.35,VWS V14.01,2013-11-06 04:49:00,
2013-11-05 22:54:00,31.9,30.9,30.06,NNE,23,0.0,0.0,96,0.03,,OVC048,0.35,VWS V14.01,2013-11-06 04:54:00,
2013-11-05 22:59:00,31.9,30.9,30.06,NNE,23,0.0,0.0,96,0.03,,OVC048,0.35,VWS V14.01,2013-11-06 04:59:00,
2013-11-05 23:00:00,31.9,30.9,30.05,NNE,23,0.0,0.0,96,0.03,,,0.35,VWS V15.00,2013-11-06 05:00:00,
2013-11-05 23:01:00,31.9,30.9,30.05,NNE,23,0.0,0.0,96,0.02,,OVC048,0.35,VWS V14.01,2013-11-06 05:01:00,
2013-11-05 23:02:00,31.9,30.9,30.05,NNE,23,0.0,0.0,96,0.02,,OVC048,0.35,VWS V14.01,2013-11-06 05:02:00,
2013-11-05 23:05:00,31.9,30.9,30.05,NNE,23,0.0,0.0,96,0.02,,OVC048,0.35,VWS V14.01,2013-11-06 05:05:00,
2013-11-05 23:06:00,31.9,30.9,30.05,NNE,23,0.0,0.0,96,0.02,,OVC048,0.35,VWS V14.01,2013-11-06 05:06:00,
2013-11-05 23:07:00,31.9,30.9,30.05,NNE,23,0.0,0.0,96,0.02,,OVC048,0.35,VWS V14.01,2013-11-06 05:07:00,
2013-11-05 23:12:00,31.9,30.9,30.05,NNE,23,0.0,0.0,96,0.02,,OVC048,0.35,VWS V14.01,2013-11-06 05:12:00,
2013-11-05 23:14:00,31.9,30.9,30.05,NNE,23,0.0,0.0,96,0.03,,OVC048,0.36,VWS V14.01,2013-11-06 05:14:00,
2013-11-05 23:15:00,31.9,30.9,30.05,NNE,23,0.0,0.0,96,0.03,,,0.36,VWS V15.00,2013-11-06 05:15:00,
2013-11-05 23:19:00,31.9,30.9,30.05,NNE,23,0.0,0.0,96,0.03,,OVC048,0.36,VWS V14.01,2013-11-06 05:19:00,
2013-11-05 23:24:00,31.9,30.9,30.05,NNE,23,0.0,0.0,96,0.03,,OVC048,0.36,VWS V14.01,2013-11-06 05:24:00,
2013-11-05 23:29:00,31.9,30.9,30.05,NNE,23,0.0,0.0,96,0.03,,OVC048,0.36,VWS V14.01,2013-11-06 05:29:00,
2013-11-05 23:30:00,31.9,30.9,30.06,NNE,23,0.0,0.0,96,0.03,,,0.36,VWS V15.00,2013-11-06 05:30:00,
2013-11-05 23:34:00,31.9,30.9,30.06,NNE,23,0.0,0.0,96,0.03,,OVC048,0.37,VWS V14.01,2013-11-06 05:34:00,
2013-11-05 23:39:00,31.9,30.9,30.06,NNE,23,0.0,0.0,96,0.03,,OVC048,0.37,VWS V14.01,2013-11-06 05:39:00,
2013-11-05 23:44:00,31.9,30.9,30.06,NNE,23,0.0,0.0,96,0.03,,,0.37,VWS V14.01,2013-11-06 05:44:00,
2013-11-05 23:45:00,31.9,30.9,30.05,NNE,23,0.0,0.0,96,0.03,,,0.37,VWS V15.00,2013-11-06 05:45:00,
2013-11-05 23:49:00,31.9,30.9,30.05,NNE,23,0.0,0.0,96,0.02,,,0.37,VWS V14.01,2013-11-06 05:49:00,
2013-11-05 23:54:00,31.9,30.9,30.05,NNE,23,0.0,0.0,96,0.02,,,0.37,VWS V14.01,2013-11-06 05:54:00,